Regional Weather Roundup
Issued by NWS

Home | Current Version | Previous Version | Graphics & Text | Print | Product List | Glossary On
Versions: 1 2 3 4 5 6 7 8 9 10 11 12 13 14 15 16 17 18 19 20 21 22 23 24 25 26 27 28 29 30 31 32 33 34 35 36 37 38 39 40 41 42 43 44 45 46 47 48 49 50
600
ASUS43 KIND 141409
RWRIN

WEATHER ROUNDUP FOR INDIANA
NATIONAL WEATHER SERVICE INDIANAPOLIS IN
900 AM EST SUN FEB 14 2016

NOTE: "FAIR" INDICATES FEW OR NO CLOUDS BELOW 12,000 FEET WITH NO
SIGNIFICANT WEATHER AND/OR OBSTRUCTIONS TO VISIBILITY.

* - STATION DOES NOT REPORT WEATHER SUCH AS PRECIPITATION OR FOG.

+ - STATION NOT QUALITY CONTROLLED BY THE NATIONAL WEATHER SERVICE.
    USE DATA WITH CAUTION...ESPECIALLY DEWPOINT AND RELATIVE
    HUMIDITY OBSERVATIONS.

INZ001>003-010>013-019-020-141500-
NORTHWEST INDIANA

CITY           SKY/WX    TMP DP  RH WIND       PRES   REMARKS
GARY /AIRPORT/ CLOUDY    16   3  57 SE10      30.37F WCI   3
KNOX *+        PTSUNNY   12   3  67 SE12      30.39F WCI  -2
LA PORTE +     MOSUNNY   10   4  79 SE8       30.39F WCI  -3
MICHIGAN CITY+ CLOUDY    10   3  72 SE8       30.40F WCI  -1
MONTICELLO +   CLOUDY    14   0  55 SE8       30.37F WCI   2
RENSSELAER +   CLOUDY    16   1  53 E16       30.36F WCI   0
VALPARAISO     CLOUDY    12   4  70 SE10      30.37F WCI  -1

$$

LMZ046-743>745-141500-
SOUTHERN LAKE MICHIGAN

STATION/POSITION TIME  TEMP    WIND        PRES    WAVE
                       AIR SEA DIR/SP/G            HT
                 (UTC) (F)     (DEG/KT/KT) (MB)    (FT)
BURNS HARBOR     1400   13     130/  7/ 21 1028.8F
MICHIGAN CITY    1300    9     120/  9/ 10   N/A

$$

INZ004-005-014>016-021>024-141500-
NORTH CENTRAL INDIANA

CITY           SKY/WX    TMP DP  RH WIND       PRES   REMARKS
ELKHART        CLOUDY     9   1  72 MISG      30.42S
GOSHEN         MOSUNNY    8   0  69 SE7       30.41S WCI  -3
LOGANSPORT +   CLOUDY    14   1  57 SE13      30.39F WCI   0
PERU/GRISSOM   CLOUDY    12   5  72 SE12      30.37F WCI  -2
ROCHESTER +    CLOUDY    10   0  61 SE8       30.40F WCI  -1
SOUTH BEND     CLOUDY     6   2  83 SE9       30.40F WCI  -8
WARSAW +       CLOUDY     9   3  78 SE6       30.41S WCI  -1

$$

INZ006>009-017-018-025>027-141500-
NORTHEAST INDIANA

CITY           SKY/WX    TMP DP  RH WIND       PRES   REMARKS
ANGOLA *+      SUNNY      3  -2  78 SE3       30.40F
AUBURN +       CLOUDY    10   5  79 SE3       30.43S
FORT WAYNE     CLOUDY    10   3  73 SE8       30.43F WCI  -2
HUNTINGTON +   CLOUDY     8   0  69 SE7       30.42S WCI  -3

$$

INZ028-029-035-036-043>045-051>053-141500-
WEST CENTRAL INDIANA

CITY           SKY/WX    TMP DP  RH WIND       PRES   REMARKS
CRAWFORDSVL +  FLURRIES  14   2  60 SE15      30.35S WCI  -2
GREENCASTLE +  LGT SNOW  16   5  62 SE15      30.34F WCI   1
LAFAYETTE      PTSUNNY   15   4  61 E14       30.36F WCI   0
TERRE HAUTE    CLOUDY    16  10  77 SE10      30.34F WCI   4

$$

INZ030>032-037>040-046>048-054>057-064-065-141500-
CENTRAL INDIANA

CITY           SKY/WX    TMP DP  RH WIND       PRES   REMARKS
FISHERS *+     CLOUDY    14   7  73 SE12G17   30.38F WCI   0
FRANKFORT +    SUNNY     15  -2  47 SE14      30.37F WCI   1
GREENWOOD *+   CLOUDY    16  10  79 SE10G16   30.39F WCI   3
INDIANAPOLIS   CLOUDY    15   7  70 SE15      30.35F WCI   0
-EAGLE CREEK   CLOUDY    14   6  70 SE10      30.36F WCI   1
KOKOMO *+      CLOUDY    12   3  67 SE12G18   30.39F WCI  -2
MARION +       MOSUNNY    9  -4  57 SE8       30.40F WCI  -3
MT COMFORT *+  CLOUDY    14   3  62 SE12      30.39F WCI   0
SHELBYVILLE    CLOUDY    15   5  64 SE10      30.40F WCI   2
ZIONSVILLE +   CLOUDY    14   3  63 SE10      30.37F WCI   1

$$

INZ033-034-041-042-049-050-058-059-141500-
EAST CENTRAL INDIANA

CITY           SKY/WX    TMP DP  RH WIND       PRES   REMARKS
MUNCIE         CLOUDY    12   2  64 SE8       30.40F WCI   0

$$

INZ060-061-067>069-081>083-085>088-141500-
SOUTHWEST INDIANA

CITY           SKY/WX    TMP DP  RH WIND       PRES   REMARKS
EVANSVILLE     CLOUDY    24  12  60 SE14G20   30.33F WCI  12
HUNTINGBURG *+ CLOUDY    19   9  63 E15G21    30.35F WCI   5
WASHINGTON +   CLOUDY    18  13  80 SE16      30.35F WCI   3

$$

INZ062-063-066-070>080-084-089>092-141500-
SOUTH CENTRAL AND SOUTHEAST INDIANA

CITY           SKY/WX    TMP DP  RH WIND       PRES   REMARKS
BEDFORD +      FLURRIES  16  14  93 E12       30.36F WCI   3
BLOOMINGTON    CLOUDY    16  10  77 SE10      30.35F WCI   4
MADISON *+     CLOUDY    18  10  73 E7        30.43F WCI   8
NORTH VERNON + LGT SNOW  16   9  73 CALM      30.42F
SEYMOUR +      LGT SNOW  19   9  63 SE10      30.41F WCI   8

$$





USA.gov is the U.S. government's official web portal to all federal, state and local government web resources and services.